| time (UTC) | temp C | wind direction | speed KPH | gust KPH | rain 1hr cm | rain 24hr cm | rain mn cm | humidity % | barometer mb |
| 20260509232254 | 25 | 79 | 0.0 | 3.2 | 0.00 | 0.25 | 0.00 | 34 | 1010.6 |
| 20260509231728 | 25 | 101 | 0.0 | 6.4 | 0.00 | 0.25 | 0.00 | 34 | 1010.7 |
| 20260509230253 | 25 | 49 | 0.0 | 3.2 | 0.00 | 0.25 | 0.00 | 34 | 1010.6 |
| 20260509225725 | 25 | 120 | 0.0 | 0.0 | 0.00 | 0.25 | 0.00 | 33 | 1010.6 |
| 20260509224251 | 26 | 186 | 1.6 | 4.8 | 0.00 | 0.25 | 0.00 | 33 | 1010.7 |
| 20260509223253 | 26 | 113 | 1.6 | 6.4 | 0.00 | 0.25 | 0.00 | 32 | 1010.9 |
| 20260509222251 | 26 | 108 | 1.6 | 6.4 | 0.00 | 0.25 | 0.00 | 33 | 1010.9 |
| 20260509221249 | 26 | 96 | 0.0 | 4.8 | 0.00 | 0.25 | 0.00 | 34 | 1010.8 |
| 20260509220251 | 26 | 69 | 3.2 | 12.9 | 0.00 | 0.25 | 0.00 | 33 | 1010.8 |
| 20260509215251 | 26 | 109 | 1.6 | 4.8 | 0.00 | 0.25 | 0.00 | 37 | 1010.7 |
| 20260509214249 | 26 | 180 | 3.2 | 9.7 | 0.00 | 0.25 | 0.00 | 32 | 1010.7 |
| 20260509213247 | 26 | 128 | 3.2 | 6.4 | 0.00 | 0.25 | 0.00 | 32 | 1010.7 |
| 20260509212246 | 26 | 161 | 3.2 | 6.4 | 0.00 | 0.25 | 0.00 | 34 | 1011.0 |
| 20260509211243 | 26 | 58 | 1.6 | 6.4 | 0.00 | 0.25 | 0.00 | 31 | 1011.2 |
| 20260509210725 | 26 | 11 | 1.6 | 6.4 | 0.00 | 0.25 | 0.00 | 30 | 1011.3 |
| 20260509205240 | 27 | 35 | 3.2 | 8.0 | 0.00 | 0.25 | 0.00 | 33 | 1011.3 |
| 20260509204239 | 26 | 155 | 3.2 | 8.0 | 0.00 | 0.25 | 0.00 | 31 | 1011.3 |
| 20260509203239 | 26 | 114 | 1.6 | 9.7 | 0.00 | 0.25 | 0.00 | 31 | 1011.3 |
| 20260509202731 | 26 | 112 | 1.6 | 8.0 | 0.00 | 0.25 | 0.00 | 33 | 1011.2 |
| 20260509201240 | 26 | 120 | 3.2 | 11.3 | 0.00 | 0.25 | 0.00 | 30 | 1011.4 |
| 20260509200712 | 26 | 113 | 1.6 | 9.7 | 0.00 | 0.25 | 0.00 | 36 | 1011.5 |
| 20260509195240 | 26 | 250 | 1.6 | 11.3 | 0.00 | 0.25 | 0.00 | 31 | 1011.6 |
| 20260509194240 | 26 | 22 | 1.6 | 3.2 | 0.00 | 0.25 | 0.00 | 35 | 1011.4 |
| 20260509193730 | 26 | 211 | 3.2 | 11.3 | 0.00 | 0.25 | 0.00 | 32 | 1011.6 |
| 20260509192239 | 26 | 340 | 1.6 | 9.7 | 0.00 | 0.25 | 0.00 | 36 | 1011.6 |
| 20260509191237 | 26 | 355 | 1.6 | 6.4 | 0.00 | 0.25 | 0.00 | 33 | 1011.7 |
| 20260509190716 | 26 | 324 | 3.2 | 6.4 | 0.00 | 0.25 | 0.00 | 41 | 1011.6 |
| 20260509185237 | 26 | 291 | 3.2 | 12.9 | 0.00 | 0.25 | 0.00 | 35 | 1011.8 |
| 20260509184237 | 26 | 196 | 4.8 | 9.7 | 0.00 | 0.25 | 0.00 | 35 | 1011.9 |
| 20260509183237 | 26 | 134 | 4.8 | 11.3 | 0.00 | 0.25 | 0.00 | 34 | 1011.9 |
| 20260509182238 | 25 | 176 | 6.4 | 14.5 | 0.00 | 0.25 | 0.00 | 35 | 1011.8 |
| 20260509181725 | 25 | 171 | 4.8 | 9.7 | 0.00 | 0.25 | 0.00 | 41 | 1011.9 |
| 20260509180232 | 25 | 155 | 4.8 | 8.0 | 0.00 | 0.25 | 0.00 | 42 | 1012.0 |
| 20260509175231 | 25 | 17 | 3.2 | 8.0 | 0.00 | 0.25 | 0.00 | 43 | 1012.1 |
| 20260509174232 | 25 | 156 | 0.0 | 3.2 | 0.00 | 0.25 | 0.00 | 45 | 1012.1 |
| 20260509173233 | 25 | 192 | 4.8 | 12.9 | 0.00 | 0.25 | 0.00 | 46 | 1012.2 |
| 20260509172232 | 25 | 173 | 4.8 | 12.9 | 0.00 | 0.25 | 0.00 | 52 | 1012.3 |
| 20260509171231 | 24 | 171 | 4.8 | 12.9 | 0.00 | 0.25 | 0.00 | 55 | 1012.3 |
| 20260509170232 | 23 | 144 | 1.6 | 8.0 | 0.00 | 0.25 | 0.00 | 59 | 1012.3 |
| 20260509165234 | 23 | 194 | 1.6 | 9.7 | 0.00 | 0.25 | 0.00 | 56 | 1012.3 |
| 20260509164234 | 23 | 155 | 0.0 | 4.8 | 0.00 | 0.25 | 0.00 | 61 | 1012.3 |
| 20260509163231 | 22 | 122 | 1.6 | 6.4 | 0.00 | 0.25 | 0.00 | 61 | 1012.4 |
| 20260509162231 | 22 | 180 | 6.4 | 11.3 | 0.00 | 0.25 | 0.00 | 69 | 1012.5 |
| 20260509161230 | 22 | 179 | 4.8 | 9.7 | 0.00 | 0.25 | 0.00 | 69 | 1012.6 |
| 20260509160231 | 21 | 176 | 4.8 | 11.3 | 0.00 | 0.25 | 0.00 | 75 | 1012.6 |
| 20260509155718 | 21 | 164 | 4.8 | 9.7 | 0.00 | 0.25 | 0.00 | 73 | 1012.5 |
| 20260509154231 | 20 | 172 | 4.8 | 9.7 | 0.00 | 0.25 | 0.00 | 76 | 1012.5 |
| 20260509153231 | 20 | 182 | 4.8 | 9.7 | 0.00 | 0.25 | 0.00 | 79 | 1012.4 |
| 20260509152232 | 20 | 158 | 3.2 | 8.0 | 0.00 | 0.25 | 0.00 | 79 | 1012.4 |
| 20260509151230 | 19 | 181 | 3.2 | 9.7 | 0.00 | 0.25 | 0.00 | 80 | 1012.5 |
| 20260509150247 | 19 | 180 | 4.8 | 11.3 | 0.00 | 0.25 | 0.00 | 83 | 1012.5 |
| 20260509145231 | 18 | 190 | 3.2 | 8.0 | 0.00 | 0.25 | 0.00 | 83 | 1012.4 |
| 20260509144231 | 18 | 185 | 4.8 | 9.7 | 0.00 | 0.25 | 0.00 | 87 | 1012.3 |
| 20260509143233 | 17 | 169 | 3.2 | 8.0 | 0.00 | 0.25 | 0.00 | 89 | 1012.4 |
| 20260509142232 | 17 | 201 | 1.6 | 3.2 | 0.00 | 0.25 | 0.00 | 91 | 1012.2 |
| 20260509141233 | 16 | 155 | 0.0 | 4.8 | 0.00 | 0.25 | 0.00 | 93 | 1012.2 |
| 20260509140231 | 15 | 138 | 1.6 | 6.4 | 0.00 | 0.25 | 0.00 | 94 | 1012.2 |
| 20260509135720 | 15 | 189 | 1.6 | 4.8 | 0.00 | 0.25 | 0.00 | 94 | 1012.1 |
| 20260509134231 | 14 | 192 | 0.0 | 1.6 | 0.00 | 0.25 | 0.00 | 95 | 1012.0 |
| 20260509133233 | 13 | 144 | 0.0 | 0.0 | 0.00 | 0.25 | 0.00 | 95 | 1012.0 |
| 20260509132236 | 13 | 144 | 0.0 | 0.0 | 0.00 | 0.25 | 0.00 | 95 | 1011.9 |
| 20260509131230 | 13 | 155 | 0.0 | 0.0 | 0.00 | 0.25 | 0.00 | 95 | 1011.7 |
| 20260509130727 | 12 | 155 | 0.0 | 0.0 | 0.00 | 0.25 | 0.00 | 95 | 1011.7 |
| 20260509125722 | 12 | 178 | 0.0 | 0.0 | 0.00 | 0.25 | 0.00 | 95 | 1011.6 |
| 20260509124230 | 12 | 135 | 0.0 | 0.0 | 0.00 | 0.25 | 0.00 | 95 | 1011.7 |
| 20260509123709 | 12 | 135 | 0.0 | 0.0 | 0.00 | 0.25 | 0.00 | 95 | 1011.7 |
| 20260509122232 | 11 | 84 | 0.0 | 0.0 | 0.00 | 0.25 | 0.00 | 95 | 1011.6 |
| 20260509121231 | 11 | 84 | 0.0 | 0.0 | 0.00 | 0.25 | 0.00 | 95 | 1011.4 |
| 20260509120228 | 11 | 84 | 0.0 | 0.0 | 0.00 | 0.25 | 0.00 | 95 | 1011.3 |
| 20260509115227 | 11 | 84 | 0.0 | 0.0 | 0.00 | 0.25 | 0.00 | 95 | 1011.2 |
| 20260509114222 | 11 | 84 | 0.0 | 0.0 | 0.00 | 0.25 | 0.00 | 95 | 1011.3 |
| 20260509113220 | 11 | 84 | 0.0 | 0.0 | 0.00 | 0.25 | 0.00 | 95 | 1011.1 |
| 20260509112655 | 11 | 84 | 0.0 | 0.0 | 0.00 | 0.25 | 0.00 | 95 | 1011.1 |
| 20260509111217 | 11 | 84 | 0.0 | 0.0 | 0.00 | 0.25 | 0.00 | 95 | 1010.9 |
| 20260509110218 | 11 | 129 | 0.0 | 0.0 | 0.00 | 0.25 | 0.00 | 95 | 1010.8 |
| 20260509105217 | 11 | 129 | 0.0 | 0.0 | 0.00 | 0.25 | 0.00 | 95 | 1010.7 |
| 20260509104216 | 11 | 129 | 0.0 | 0.0 | 0.00 | 0.25 | 0.00 | 95 | 1010.7 |
| 20260509103216 | 11 | 129 | 0.0 | 0.0 | 0.00 | 0.25 | 0.00 | 95 | 1010.5 |
| 20260509102217 | 11 | 140 | 0.0 | 0.0 | 0.00 | 0.25 | 0.00 | 95 | 1010.6 |
| 20260509101210 | 11 | 277 | 0.0 | 0.0 | 0.00 | 0.25 | 0.00 | 94 | 1010.6 |
| 20260509100212 | 11 | 209 | 0.0 | 3.2 | 0.00 | 0.25 | 0.00 | 94 | 1010.6 |
| 20260509095211 | 11 | 5 | 0.0 | 1.6 | 0.00 | 0.25 | 0.00 | 95 | 1010.6 |
| 20260509094210 | 11 | 5 | 0.0 | 3.2 | 0.00 | 0.25 | 0.00 | 95 | 1010.7 |
| 20260509093210 | 11 | 5 | 0.0 | 3.2 | 0.00 | 0.25 | 0.00 | 95 | 1010.7 |
| 20260509092210 | 11 | 296 | 0.0 | 0.0 | 0.00 | 0.25 | 0.00 | 94 | 1010.8 |
| 20260509091211 | 11 | 296 | 0.0 | 0.0 | 0.00 | 0.25 | 0.00 | 94 | 1010.8 |
| 20260509090210 | 11 | 296 | 0.0 | 0.0 | 0.00 | 0.25 | 0.00 | 95 | 1010.9 |
| 20260509085645 | 11 | 296 | 0.0 | 0.0 | 0.00 | 0.25 | 0.00 | 94 | 1010.9 |
| 20260509084206 | 11 | 296 | 0.0 | 0.0 | 0.00 | 0.25 | 0.00 | 94 | 1010.9 |
| 20260509083206 | 11 | 296 | 0.0 | 0.0 | 0.00 | 0.25 | 0.00 | 94 | 1011.1 |
| 20260509082204 | 11 | 296 | 0.0 | 0.0 | 0.00 | 0.25 | 0.00 | 94 | 1011.1 |
| 20260509081204 | 11 | 252 | 0.0 | 0.0 | 0.00 | 0.25 | 0.00 | 94 | 1011.2 |
| 20260509080206 | 11 | 252 | 0.0 | 0.0 | 0.00 | 0.25 | 0.00 | 93 | 1011.2 |
| 20260509075205 | 11 | 252 | 0.0 | 0.0 | 0.00 | 0.25 | 0.00 | 93 | 1011.3 |
| 20260509074648 | 12 | 252 | 0.0 | 1.6 | 0.00 | 0.25 | 0.00 | 93 | 1011.3 |
| 20260509073204 | 12 | 293 | 0.0 | 1.6 | 0.00 | 0.25 | 0.00 | 94 | 1011.3 |
| 20260509072204 | 12 | 293 | 0.0 | 3.2 | 0.00 | 0.25 | 0.00 | 93 | 1011.4 |
| 20260509071205 | 12 | 263 | 0.0 | 1.6 | 0.00 | 0.25 | 0.00 | 93 | 1011.3 |
| 20260509070204 | 12 | 263 | 0.0 | 0.0 | 0.00 | 0.25 | 0.00 | 93 | 1011.1 |
| 20260509064201 | 12 | 263 | 0.0 | 0.0 | 0.00 | 0.25 | 0.00 | 92 | 1011.3 |
| 20260509063650 | 12 | 320 | 0.0 | 1.6 | 0.00 | 0.25 | 0.00 | 93 | 1011.3 |
| 20260509062202 | 12 | 320 | 0.0 | 3.2 | 0.00 | 0.25 | 0.00 | 91 | 1011.4 |
| 20260509061202 | 12 | 289 | 0.0 | 0.0 | 0.00 | 0.25 | 0.00 | 92 | 1011.3 |
| 20260509060203 | 12 | 289 | 0.0 | 0.0 | 0.00 | 0.25 | 0.00 | 92 | 1011.3 |
| 20260509055201 | 13 | 289 | 0.0 | 1.6 | 0.00 | 0.25 | 0.00 | 91 | 1011.5 |
| 20260509054201 | 13 | 309 | 0.0 | 3.2 | 0.00 | 0.25 | 0.00 | 90 | 1011.6 |
| 20260509053200 | 13 | 309 | 1.6 | 4.8 | 0.00 | 0.25 | 0.00 | 90 | 1011.6 |
| 20260509052200 | 13 | 335 | 4.8 | 8.0 | 0.00 | 0.25 | 0.00 | 90 | 1011.5 |
| 20260509051632 | 13 | 311 | 4.8 | 11.3 | 0.00 | 0.25 | 0.00 | 90 | 1011.5 |
| 20260509050644 | 13 | 327 | 6.4 | 11.3 | 0.00 | 0.25 | 0.00 | 90 | 1011.7 |
| 20260509045154 | 13 | 331 | 9.7 | 12.9 | 0.00 | 0.25 | 0.25 | 89 | 1011.5 |
| 20260509044153 | 14 | 321 | 4.8 | 9.7 | 0.00 | 0.25 | 0.25 | 87 | 1011.3 |
| 20260509043152 | 15 | 204 | 4.8 | 9.7 | 0.00 | 0.25 | 0.25 | 86 | 1010.9 |
| 20260509042153 | 14 | 217 | 3.2 | 8.0 | 0.00 | 0.25 | 0.25 | 88 | 1010.9 |
| 20260509041639 | 14 | 203 | 3.2 | 8.0 | 0.00 | 0.25 | 0.25 | 86 | 1010.8 |
| 20260509040639 | 15 | 261 | 3.2 | 6.4 | 0.00 | 0.25 | 0.25 | 85 | 1010.6 |
| 20260509035636 | 15 | 198 | 3.2 | 6.4 | 0.00 | 0.25 | 0.25 | 85 | 1010.6 |
| 20260509034150 | 15 | 223 | 4.8 | 8.0 | 0.00 | 0.25 | 0.25 | 83 | 1010.3 |
| 20260509033631 | 16 | 229 | 3.2 | 8.0 | 0.00 | 0.25 | 0.25 | 81 | 1010.0 |
| 20260509032146 | 16 | 219 | 6.4 | 12.9 | 0.00 | 0.25 | 0.25 | 81 | 1009.9 |
| 20260509031145 | 16 | 184 | 11.3 | 20.9 | 0.00 | 0.25 | 0.25 | 82 | 1009.7 |
| 20260509030629 | 16 | 169 | 14.5 | 25.7 | 0.00 | 0.25 | 0.25 | 82 | 1009.5 |
| 20260509025148 | 16 | 177 | 16.1 | 27.4 | 0.00 | 0.25 | 0.25 | 83 | 1009.4 |
| 20260509024147 | 16 | 173 | 16.1 | 25.7 | 0.08 | 0.25 | 0.25 | 83 | 1009.1 |
| 20260509023144 | 16 | 170 | 14.5 | 27.4 | 0.13 | 0.25 | 0.25 | 84 | 1009.1 |
| 20260509022144 | 17 | 163 | 20.9 | 35.4 | 0.20 | 0.25 | 0.25 | 83 | 1009.0 |
| 20260509021144 | 16 | 188 | 20.9 | 41.8 | 0.20 | 0.25 | 0.25 | 86 | 1008.6 |
| 20260509020145 | 16 | 179 | 25.7 | 41.8 | 0.23 | 0.25 | 0.25 | 82 | 1009.6 |
| 20260509015143 | 16 | 184 | 16.1 | 33.8 | 0.23 | 0.25 | 0.23 | 83 | 1009.5 |
| 20260509014146 | 17 | 205 | 3.2 | 9.7 | 0.18 | 0.18 | 0.18 | 87 | 1011.9 |
| 20260509013139 | 17 | 231 | 1.6 | 6.4 | 0.10 | 0.10 | 0.10 | 84 | 1011.9 |
| 20260509012625 | 17 | 267 | 3.2 | 6.4 | 0.05 | 0.05 | 0.05 | 80 | 1011.3 |
| 20260509011629 | 17 | 322 | 3.2 | 4.8 | 0.05 | 0.05 | 0.03 | 82 | 1010.7 |
| 20260509010140 | 18 | 300 | 3.2 | 4.8 | 0.03 | 0.03 | 0.03 | 77 | 1010.4 |
| 20260509005141 | 19 | 340 | 6.4 | 16.1 | 0.03 | 0.03 | 0.03 | 71 | 1010.4 |
| 20260509004142 | 20 | 325 | 8.0 | 12.9 | 0.00 | 0.00 | 0.00 | 67 | 1010.7 |
| 20260509002139 | 20 | 304 | 3.2 | 4.8 | 0.00 | 0.00 | 0.00 | 63 | 1009.7 |
| 20260509001139 | 21 | 301 | 1.6 | 4.8 | 0.00 | 0.00 | 0.00 | 64 | 1009.3 |
| 20260509000134 | 21 | 248 | 0.0 | 1.6 | 0.00 | 0.00 | 0.00 | 59 | 1009.0 |
| 20260508235131 | 22 | 162 | 0.0 | 1.6 | 0.00 | 0.00 | 0.00 | 60 | 1009.0 |
| 20260508234131 | 22 | 296 | 1.6 | 3.2 | 0.00 | 0.00 | 0.00 | 56 | 1009.2 |